Time,TemperatureF,DewpointF,PressureIn,WindDirection,WindDirectionDegrees,WindSpeedMPH,WindSpeedGustMPH,Humidity,HourlyPrecipIn,Conditions,Clouds,dailyrainin,SoftwareType,DateUTC
2013-02-10 00:01:00,37.4,33.3,30.32,NNE,18,0.0,0.0,85,0.00,,,0.00,Wunderground v.1.15,2013-02-10 05:01:00,
2013-02-10 00:05:00,37.2,33.1,30.32,NNE,18,0.0,0.0,85,0.00,,,0.00,Wunderground v.1.15,2013-02-10 05:05:00,
2013-02-10 00:10:00,36.8,32.7,30.32,NNE,18,0.0,0.0,85,0.00,,,0.00,Wunderground v.1.15,2013-02-10 05:10:00,
2013-02-10 00:16:00,37.0,32.9,30.32,NNE,18,0.0,0.0,85,0.00,,,0.00,Wunderground v.1.15,2013-02-10 05:16:00,
2013-02-10 00:20:00,36.5,32.4,30.31,NNE,18,0.0,0.0,85,0.00,,,0.00,Wunderground v.1.15,2013-02-10 05:20:00,
2013-02-10 00:25:00,36.4,32.3,30.31,NNE,18,0.0,0.0,85,0.00,,,0.00,Wunderground v.1.15,2013-02-10 05:25:00,
2013-02-10 00:30:00,36.2,32.1,30.31,NNE,18,0.0,0.0,85,0.00,,,0.00,Wunderground v.1.15,2013-02-10 05:30:00,
2013-02-10 00:36:00,36.0,32.2,30.31,NNE,18,0.0,0.0,86,0.00,,,0.00,Wunderground v.1.15,2013-02-10 05:36:00,
2013-02-10 00:45:00,35.5,32.3,30.31,NNE,18,0.0,0.0,88,0.00,,,0.00,Wunderground v.1.15,2013-02-10 05:45:00,
2013-02-10 00:55:00,35.4,32.5,30.31,NNE,18,0.0,0.0,89,0.00,,,0.00,Wunderground v.1.15,2013-02-10 05:55:00,
2013-02-10 01:01:00,35.2,32.6,30.31,NNE,18,0.0,0.0,90,0.00,,,0.00,Wunderground v.1.15,2013-02-10 06:01:00,
2013-02-10 01:10:00,34.8,32.2,30.31,NNE,18,0.0,0.0,90,0.00,,,0.00,Wunderground v.1.15,2013-02-10 06:10:00,
2013-02-10 01:16:00,34.9,32.5,30.31,NNE,18,0.0,0.0,91,0.00,,,0.00,Wunderground v.1.15,2013-02-10 06:16:00,
2013-02-10 01:26:00,35.3,32.7,30.32,NNE,18,0.0,0.0,90,0.00,,,0.00,Wunderground v.1.15,2013-02-10 06:26:00,
2013-02-10 01:31:00,35.2,32.6,30.32,NNE,18,0.0,0.0,90,0.00,,,0.00,Wunderground v.1.15,2013-02-10 06:31:00,
2013-02-10 01:40:00,34.9,32.0,30.32,NNE,18,0.0,0.0,89,0.00,,,0.00,Wunderground v.1.15,2013-02-10 06:40:00,
2013-02-10 01:46:00,35.2,32.0,30.32,NNE,18,0.0,0.0,88,0.00,,,0.00,Wunderground v.1.15,2013-02-10 06:46:00,
2013-02-10 01:56:00,35.7,31.3,30.32,NNE,18,0.0,0.0,84,0.00,,,0.00,Wunderground v.1.15,2013-02-10 06:56:00,
2013-02-10 02:05:00,35.3,30.7,30.32,NNE,18,0.0,0.0,83,0.00,,,0.00,Wunderground v.1.15,2013-02-10 07:05:00,
2013-02-10 02:11:00,35.2,30.3,30.32,NNE,18,0.0,1.0,82,0.00,,,0.00,Wunderground v.1.15,2013-02-10 07:11:00,
2013-02-10 02:16:00,35.7,30.4,30.32,NNE,18,0.0,1.0,81,0.00,,,0.00,Wunderground v.1.15,2013-02-10 07:16:00,
2013-02-10 02:25:00,36.2,29.7,30.32,NNE,18,0.0,0.0,77,0.00,,,0.00,Wunderground v.1.15,2013-02-10 07:25:00,
2013-02-10 02:30:00,36.4,29.6,30.32,NNE,18,0.0,0.0,76,0.00,,,0.00,Wunderground v.1.15,2013-02-10 07:30:00,
2013-02-10 02:35:00,36.5,29.7,30.32,NNE,18,0.0,0.0,76,0.00,,,0.00,Wunderground v.1.15,2013-02-10 07:35:00,
2013-02-10 02:45:00,37.4,29.2,30.32,NNE,18,0.0,2.0,72,0.00,,,0.00,Wunderground v.1.15,2013-02-10 07:45:00,
2013-02-10 02:51:00,37.2,29.0,30.32,NNE,18,0.0,0.0,72,0.00,,,0.00,Wunderground v.1.15,2013-02-10 07:51:00,
2013-02-10 03:00:00,36.5,28.3,30.32,NNE,18,0.0,0.0,72,0.00,,,0.00,Wunderground v.1.15,2013-02-10 08:00:00,
2013-02-10 03:06:00,36.4,28.6,30.32,NNE,18,0.0,0.0,73,0.00,,,0.00,Wunderground v.1.15,2013-02-10 08:06:00,
2013-02-10 03:11:00,36.6,28.4,30.32,NNE,18,0.0,0.0,72,0.00,,,0.00,Wunderground v.1.15,2013-02-10 08:11:00,
2013-02-10 03:21:00,36.1,28.3,30.31,NNE,18,0.0,0.0,73,0.00,,,0.00,Wunderground v.1.15,2013-02-10 08:21:00,
2013-02-10 03:30:00,36.2,28.4,30.31,NNE,18,0.0,0.0,73,0.00,,,0.00,Wunderground v.1.15,2013-02-10 08:30:00,
2013-02-10 03:36:00,36.4,28.2,30.31,NNE,18,0.0,0.0,72,0.00,,,0.00,Wunderground v.1.15,2013-02-10 08:36:00,
2013-02-10 03:41:00,36.0,28.2,30.31,NNE,18,0.0,0.0,73,0.00,,,0.00,Wunderground v.1.15,2013-02-10 08:41:00,
2013-02-10 03:51:00,35.3,28.2,30.30,NNE,18,0.0,0.0,75,0.00,,,0.00,Wunderground v.1.15,2013-02-10 08:51:00,
2013-02-10 03:56:00,35.7,28.6,30.31,NNE,18,0.0,0.0,75,0.00,,,0.00,Wunderground v.1.15,2013-02-10 08:56:00,
2013-02-10 04:06:00,36.2,28.4,30.31,NNE,18,0.0,0.0,73,0.00,,,0.00,Wunderground v.1.15,2013-02-10 09:06:00,
2013-02-10 04:15:00,36.4,28.6,30.32,NNE,18,0.0,0.0,73,0.00,,,0.00,Wunderground v.1.15,2013-02-10 09:15:00,
2013-02-10 04:21:00,36.5,28.7,30.32,NNE,18,0.0,0.0,73,0.00,,,0.00,Wunderground v.1.15,2013-02-10 09:21:00,
2013-02-10 04:26:00,36.1,28.6,30.32,NNE,18,0.0,0.0,74,0.00,,,0.00,Wunderground v.1.15,2013-02-10 09:26:00,
2013-02-10 04:36:00,35.9,28.4,30.33,NNE,18,0.0,0.0,74,0.00,,,0.00,Wunderground v.1.15,2013-02-10 09:36:00,
2013-02-10 04:41:00,35.9,28.4,30.33,NNE,18,0.0,0.0,74,0.00,,,0.00,Wunderground v.1.15,2013-02-10 09:41:00,
2013-02-10 04:50:00,35.7,28.2,30.33,NNE,18,0.0,0.0,74,0.00,,,0.00,Wunderground v.1.15,2013-02-10 09:50:00,
2013-02-10 04:56:00,35.4,28.3,30.33,NNE,18,0.0,0.0,75,0.00,,,0.00,Wunderground v.1.15,2013-02-10 09:56:00,
2013-02-10 05:01:00,35.2,28.1,30.33,NNE,18,0.0,0.0,75,0.00,,,0.00,Wunderground v.1.15,2013-02-10 10:01:00,
2013-02-10 05:11:00,35.0,28.5,30.33,NNE,18,0.0,0.0,77,0.00,,,0.00,Wunderground v.1.15,2013-02-10 10:11:00,
2013-02-10 05:16:00,34.9,28.7,30.34,NNE,18,0.0,0.0,78,0.00,,,0.00,Wunderground v.1.15,2013-02-10 10:16:00,
2013-02-10 05:26:00,34.5,28.3,30.34,NNE,18,0.0,0.0,78,0.00,,,0.00,Wunderground v.1.15,2013-02-10 10:26:00,
2013-02-10 05:35:00,33.7,28.2,30.34,NNE,18,0.0,0.0,80,0.00,,,0.00,Wunderground v.1.15,2013-02-10 10:35:00,
2013-02-10 05:40:00,33.7,28.2,30.34,NNE,18,0.0,0.0,80,0.00,,,0.00,Wunderground v.1.15,2013-02-10 10:40:00,
2013-02-10 05:46:00,33.4,28.2,30.34,NNE,18,0.0,0.0,81,0.00,,,0.00,Wunderground v.1.15,2013-02-10 10:46:00,
2013-02-10 05:51:00,33.3,28.4,30.34,NNE,18,0.0,0.0,82,0.00,,,0.00,Wunderground v.1.15,2013-02-10 10:51:00,
2013-02-10 05:56:00,33.5,28.9,30.34,NNE,18,0.0,0.0,83,0.00,,,0.00,Wunderground v.1.15,2013-02-10 10:56:00,
2013-02-10 06:01:00,33.6,29.0,30.35,NNE,18,0.0,0.0,83,0.00,,,0.00,Wunderground v.1.15,2013-02-10 11:01:00,
2013-02-10 06:11:00,33.6,28.4,30.34,NNE,18,0.0,0.0,81,0.00,,,0.00,Wunderground v.1.15,2013-02-10 11:11:00,
2013-02-10 06:16:00,33.4,28.5,30.34,NNE,18,0.0,0.0,82,0.00,,,0.00,Wunderground v.1.15,2013-02-10 11:16:00,
2013-02-10 06:25:00,33.1,28.5,30.34,NNE,18,0.0,0.0,83,0.00,,,0.00,Wunderground v.1.15,2013-02-10 11:25:00,
2013-02-10 06:31:00,33.1,28.5,30.34,NNE,18,0.0,0.0,83,0.00,,,0.00,Wunderground v.1.15,2013-02-10 11:31:00,
2013-02-10 06:40:00,33.8,28.3,30.34,NNE,18,0.0,0.0,80,0.00,,,0.00,Wunderground v.1.15,2013-02-10 11:40:00,
2013-02-10 06:46:00,34.0,28.5,30.35,NNE,18,0.0,0.0,80,0.00,,,0.00,Wunderground v.1.15,2013-02-10 11:46:00,
2013-02-10 06:51:00,34.4,28.6,30.35,NNE,18,1.0,2.0,79,0.00,,,0.00,Wunderground v.1.15,2013-02-10 11:51:00,
2013-02-10 07:00:00,34.8,28.6,30.36,NNE,18,2.0,2.0,78,0.00,,,0.00,Wunderground v.1.15,2013-02-10 12:00:00,
2013-02-10 07:06:00,34.8,28.6,30.36,NNE,18,1.0,2.0,78,0.00,,,0.00,Wunderground v.1.15,2013-02-10 12:06:00,
2013-02-10 07:16:00,34.6,28.8,30.36,NNE,18,0.0,0.0,79,0.00,,,0.00,Wunderground v.1.15,2013-02-10 12:16:00,
2013-02-10 07:21:00,35.0,28.8,30.36,NNE,22,0.0,1.0,78,0.00,,,0.00,Wunderground v.1.15,2013-02-10 12:21:00,
2013-02-10 07:30:00,35.9,29.1,30.35,East,88,2.0,2.0,76,0.00,,,0.00,Wunderground v.1.15,2013-02-10 12:30:00,
2013-02-10 07:36:00,36.4,29.2,30.36,ENE,71,2.0,2.0,75,0.00,,,0.00,Wunderground v.1.15,2013-02-10 12:36:00,
2013-02-10 07:46:00,36.5,29.7,30.36,NE,52,1.0,2.0,76,0.00,,,0.00,Wunderground v.1.15,2013-02-10 12:46:00,
2013-02-10 07:55:00,37.0,29.8,30.37,NE,40,2.0,2.0,75,0.00,,,0.00,Wunderground v.1.15,2013-02-10 12:55:00,
2013-02-10 08:01:00,37.7,30.2,30.37,NE,35,2.0,2.0,74,0.00,,,0.00,Wunderground v.1.15,2013-02-10 13:01:00,
2013-02-10 08:10:00,38.5,30.9,30.37,East,84,3.0,3.0,74,0.00,,,0.00,Wunderground v.1.15,2013-02-10 13:10:00,
2013-02-10 08:20:00,39.5,31.2,30.38,ENE,60,2.0,2.0,72,0.00,,,0.00,Wunderground v.1.15,2013-02-10 13:20:00,
2013-02-10 08:26:00,39.6,31.0,30.38,East,79,2.0,3.0,71,0.00,,,0.00,Wunderground v.1.15,2013-02-10 13:26:00,
2013-02-10 08:35:00,39.6,31.3,30.38,ENE,61,2.0,2.0,72,0.00,,,0.00,Wunderground v.1.15,2013-02-10 13:35:00,
2013-02-10 08:41:00,39.8,31.5,30.38,ENE,69,2.0,2.0,72,0.00,,,0.00,Wunderground v.1.15,2013-02-10 13:41:00,
2013-02-10 08:50:00,40.1,31.8,30.38,ENE,69,3.0,3.0,72,0.00,,,0.00,Wunderground v.1.15,2013-02-10 13:50:00,
2013-02-10 08:55:00,40.4,32.1,30.40,East,92,2.0,3.0,72,0.00,,,0.00,Wunderground v.1.15,2013-02-10 13:55:00,
2013-02-10 09:01:00,40.6,31.9,30.39,East,92,1.0,2.0,71,0.00,,,0.00,Wunderground v.1.15,2013-02-10 14:01:00,
2013-02-10 09:11:00,41.1,32.8,30.40,East,92,1.0,2.0,72,0.00,,,0.00,Wunderground v.1.15,2013-02-10 14:11:00,
2013-02-10 09:16:00,41.3,33.3,30.39,NE,38,1.0,2.0,73,0.00,,,0.00,Wunderground v.1.15,2013-02-10 14:16:00,
2013-02-10 09:25:00,42.5,34.1,30.40,ENE,65,2.0,3.0,72,0.00,,,0.00,Wunderground v.1.15,2013-02-10 14:25:00,
2013-02-10 09:30:00,43.1,34.0,30.41,NE,55,2.0,2.0,70,0.00,,,0.00,Wunderground v.1.15,2013-02-10 14:30:00,
2013-02-10 09:36:00,43.5,33.6,30.41,ENE,63,2.0,2.0,68,0.00,,,0.00,Wunderground v.1.15,2013-02-10 14:36:00,
2013-02-10 09:45:00,44.5,35.0,30.40,NE,44,3.0,5.0,69,0.00,,,0.00,Wunderground v.1.15,2013-02-10 14:45:00,
2013-02-10 09:51:00,45.2,34.9,30.41,ENE,77,4.0,4.0,67,0.00,,,0.00,Wunderground v.1.15,2013-02-10 14:51:00,
2013-02-10 09:56:00,46.0,35.3,30.40,NE,39,4.0,4.0,66,0.00,,,0.00,Wunderground v.1.15,2013-02-10 14:56:00,
2013-02-10 10:06:00,47.1,35.5,30.41,East,84,4.0,5.0,64,0.00,,,0.00,Wunderground v.1.15,2013-02-10 15:06:00,
2013-02-10 10:15:00,48.7,36.7,30.41,East,92,4.0,4.0,63,0.00,,,0.00,Wunderground v.1.15,2013-02-10 15:15:00,
2013-02-10 10:20:00,49.1,36.2,30.41,East,85,4.0,8.0,61,0.00,,,0.00,Wunderground v.1.15,2013-02-10 15:20:00,
2013-02-10 10:26:00,49.5,36.2,30.40,East,94,5.0,8.0,60,0.00,,,0.00,Wunderground v.1.15,2013-02-10 15:26:00,
2013-02-10 10:35:00,51.0,36.7,30.40,ENE,71,6.0,7.0,58,0.00,,,0.00,Wunderground v.1.15,2013-02-10 15:35:00,
2013-02-10 10:41:00,51.3,37.4,30.40,East,87,6.0,8.0,59,0.00,,,0.00,Wunderground v.1.15,2013-02-10 15:41:00,
2013-02-10 10:50:00,52.1,36.9,30.40,ESE,107,6.0,6.0,56,0.00,,,0.00,Wunderground v.1.15,2013-02-10 15:50:00,
2013-02-10 10:56:00,52.2,37.0,30.39,ENE,78,6.0,6.0,56,0.00,,,0.00,Wunderground v.1.15,2013-02-10 15:56:00,
2013-02-10 11:01:00,52.2,37.0,30.39,East,89,7.0,7.0,56,0.00,,,0.00,Wunderground v.1.15,2013-02-10 16:01:00,
2013-02-10 11:10:00,53.3,37.5,30.38,East,98,7.0,10.0,55,0.00,,,0.00,Wunderground v.1.15,2013-02-10 16:10:00,
2013-02-10 11:15:00,53.7,38.4,30.38,East,101,7.0,10.0,56,0.00,,,0.00,Wunderground v.1.15,2013-02-10 16:15:00,
2013-02-10 11:21:00,54.1,37.8,30.38,East,90,7.0,9.0,54,0.00,,,0.00,Wunderground v.1.15,2013-02-10 16:21:00,
2013-02-10 11:31:00,55.4,39.0,30.38,East,101,7.0,8.0,54,0.00,,,0.00,Wunderground v.1.15,2013-02-10 16:31:00,
2013-02-10 11:36:00,55.5,38.1,30.39,ESE,122,8.0,9.0,52,0.00,,,0.00,Wunderground v.1.15,2013-02-10 16:36:00,
2013-02-10 11:46:00,55.7,38.8,30.39,East,88,8.0,10.0,53,0.00,,,0.00,Wunderground v.1.15,2013-02-10 16:46:00,
2013-02-10 11:51:00,55.8,38.9,30.39,East,95,7.0,8.0,53,0.00,,,0.00,Wunderground v.1.15,2013-02-10 16:51:00,
2013-02-10 12:00:00,56.5,40.0,30.39,ESE,119,8.0,8.0,54,0.00,,,0.00,Wunderground v.1.15,2013-02-10 17:00:00,
2013-02-10 12:06:00,56.6,40.1,30.38,East,96,8.0,8.0,54,0.00,,,0.00,Wunderground v.1.15,2013-02-10 17:06:00,
2013-02-10 12:11:00,56.6,39.7,30.37,ESE,116,8.0,8.0,53,0.00,,,0.00,Wunderground v.1.15,2013-02-10 17:11:00,
2013-02-10 12:20:00,57.7,41.2,30.37,SE,132,6.0,6.0,54,0.00,,,0.00,Wunderground v.1.15,2013-02-10 17:20:00,
2013-02-10 12:26:00,57.0,40.5,30.37,East,98,7.0,7.0,54,0.00,,,0.00,Wunderground v.1.15,2013-02-10 17:26:00,
2013-02-10 12:35:00,57.2,40.7,30.36,ESE,107,8.0,8.0,54,0.00,,,0.00,Wunderground v.1.15,2013-02-10 17:35:00,
2013-02-10 12:40:00,57.5,41.9,30.37,East,94,7.0,9.0,56,0.00,,,0.00,Wunderground v.1.15,2013-02-10 17:40:00,
2013-02-10 12:46:00,57.8,42.2,30.36,ESE,103,8.0,9.0,56,0.00,,,0.00,Wunderground v.1.15,2013-02-10 17:46:00,
2013-02-10 12:55:00,57.7,42.1,30.36,East,95,8.0,9.0,56,0.00,,,0.00,Wunderground v.1.15,2013-02-10 17:55:00,
2013-02-10 13:06:00,58.2,42.6,30.35,East,101,7.0,11.0,56,0.00,,,0.00,Wunderground v.1.15,2013-02-10 18:06:00,
2013-02-10 13:11:00,58.5,42.8,30.34,East,98,7.0,9.0,56,0.00,,,0.00,Wunderground v.1.15,2013-02-10 18:11:00,
2013-02-10 13:16:00,58.7,43.5,30.34,SE,132,7.0,10.0,57,0.00,,,0.00,Wunderground v.1.15,2013-02-10 18:16:00,
2013-02-10 13:21:00,59.2,44.0,30.33,ESE,119,7.0,12.0,57,0.00,,,0.00,Wunderground v.1.15,2013-02-10 18:21:00,
2013-02-10 13:30:00,59.2,44.4,30.32,East,90,9.0,14.0,58,0.00,,,0.00,Wunderground v.1.15,2013-02-10 18:30:00,
2013-02-10 13:35:00,59.1,44.3,30.32,SE,136,9.0,14.0,58,0.00,,,0.00,Wunderground v.1.15,2013-02-10 18:35:00,
2013-02-10 13:41:00,58.8,44.0,30.32,ESE,115,9.0,9.0,58,0.00,,,0.00,Wunderground v.1.15,2013-02-10 18:41:00,
2013-02-10 13:50:00,58.5,44.2,30.31,SSE,154,10.0,10.0,59,0.00,,,0.00,Wunderground v.1.15,2013-02-10 18:50:00,
2013-02-10 13:55:00,58.7,43.5,30.31,SE,124,10.0,10.0,57,0.00,,,0.00,Wunderground v.1.15,2013-02-10 18:55:00,
2013-02-10 14:01:00,58.2,43.9,30.32,ESE,118,10.0,10.0,59,0.00,,,0.00,Wunderground v.1.15,2013-02-10 19:01:00,
2013-02-10 14:11:00,58.7,44.0,30.33,ESE,109,8.0,8.0,58,0.00,,,0.00,Wunderground v.1.15,2013-02-10 19:11:00,
2013-02-10 14:16:00,58.4,43.7,30.33,SSE,147,8.0,9.0,58,0.00,,,0.00,Wunderground v.1.15,2013-02-10 19:16:00,
2013-02-10 14:21:00,58.1,43.8,30.33,SE,139,7.0,7.0,59,0.00,,,0.00,Wunderground v.1.15,2013-02-10 19:21:00,
2013-02-10 14:31:00,58.1,43.8,30.31,SE,136,8.0,8.0,59,0.00,,,0.00,Wunderground v.1.15,2013-02-10 19:31:00,
2013-02-10 14:41:00,58.5,44.2,30.30,East,100,8.0,11.0,59,0.00,,,0.00,Wunderground v.1.15,2013-02-10 19:41:00,
2013-02-10 14:46:00,58.7,44.8,30.29,ESE,116,8.0,11.0,60,0.00,,,0.00,Wunderground v.1.15,2013-02-10 19:46:00,
2013-02-10 14:51:00,58.6,44.8,30.29,East,83,8.0,9.0,60,0.00,,,0.00,Wunderground v.1.15,2013-02-10 19:51:00,
2013-02-10 15:01:00,58.2,44.8,30.28,SE,126,8.0,10.0,61,0.00,,,0.00,Wunderground v.1.15,2013-02-10 20:01:00,
2013-02-10 15:10:00,58.2,44.4,30.28,ESE,115,8.0,10.0,60,0.00,,,0.00,Wunderground v.1.15,2013-02-10 20:10:00,
2013-02-10 15:16:00,58.3,44.5,30.28,ESE,121,9.0,11.0,60,0.00,,,0.00,Wunderground v.1.15,2013-02-10 20:16:00,
2013-02-10 15:21:00,58.0,44.6,30.27,East,88,9.0,9.0,61,0.00,,,0.00,Wunderground v.1.15,2013-02-10 20:21:00,
2013-02-10 15:26:00,58.2,45.2,30.27,ESE,103,9.0,10.0,62,0.00,,,0.00,Wunderground v.1.15,2013-02-10 20:26:00,
2013-02-10 15:35:00,57.9,45.0,30.28,East,93,9.0,10.0,62,0.00,,,0.00,Wunderground v.1.15,2013-02-10 20:35:00,
2013-02-10 15:41:00,57.7,44.8,30.28,East,91,8.0,11.0,62,0.00,,,0.00,Wunderground v.1.15,2013-02-10 20:41:00,
2013-02-10 15:50:00,57.3,45.2,30.27,ESE,103,9.0,9.0,64,0.00,,,0.00,Wunderground v.1.15,2013-02-10 20:50:00,
2013-02-10 15:55:00,57.2,45.1,30.27,ESE,109,8.0,9.0,64,0.00,,,0.00,Wunderground v.1.15,2013-02-10 20:55:00,
2013-02-10 16:01:00,57.1,45.0,30.27,ESE,117,8.0,8.0,64,0.00,,,0.00,Wunderground v.1.15,2013-02-10 21:01:00,
2013-02-10 16:06:00,57.0,44.9,30.27,ESE,116,9.0,10.0,64,0.00,,,0.00,Wunderground v.1.15,2013-02-10 21:06:00,
2013-02-10 16:15:00,56.4,45.2,30.27,ESE,111,8.0,8.0,66,0.00,,,0.00,Wunderground v.1.15,2013-02-10 21:15:00,
2013-02-10 16:20:00,56.3,45.5,30.27,SE,134,8.0,8.0,67,0.00,,,0.00,Wunderground v.1.15,2013-02-10 21:20:00,
2013-02-10 16:26:00,56.2,45.8,30.27,ESE,105,7.0,8.0,68,0.00,,,0.00,Wunderground v.1.15,2013-02-10 21:26:00,
2013-02-10 16:31:00,56.0,45.6,30.28,SE,131,7.0,7.0,68,0.00,,,0.00,Wunderground v.1.15,2013-02-10 21:31:00,
2013-02-10 16:36:00,55.9,45.5,30.27,ESE,107,5.0,7.0,68,0.00,,,0.00,Wunderground v.1.15,2013-02-10 21:36:00,
2013-02-10 16:45:00,55.5,45.5,30.27,ESE,105,6.0,9.0,69,0.00,,,0.00,Wunderground v.1.15,2013-02-10 21:45:00,
2013-02-10 16:51:00,55.3,45.3,30.27,SE,140,8.0,8.0,69,0.00,,,0.00,Wunderground v.1.15,2013-02-10 21:51:00,
2013-02-10 17:00:00,55.0,45.8,30.27,ESE,108,6.0,6.0,71,0.00,,,0.00,Wunderground v.1.15,2013-02-10 22:00:00,
2013-02-10 17:06:00,54.9,45.7,30.27,SE,126,6.0,6.0,71,0.00,,,0.00,Wunderground v.1.15,2013-02-10 22:06:00,
2013-02-10 17:11:00,54.8,45.9,30.27,SE,124,6.0,6.0,72,0.00,,,0.00,Wunderground v.1.15,2013-02-10 22:11:00,
2013-02-10 17:20:00,54.5,46.0,30.26,ESE,107,5.0,5.0,73,0.00,,,0.00,Wunderground v.1.15,2013-02-10 22:20:00,
2013-02-10 17:26:00,54.4,45.9,30.26,East,82,6.0,7.0,73,0.00,,,0.00,Wunderground v.1.15,2013-02-10 22:26:00,
2013-02-10 17:35:00,54.3,46.2,30.26,East,98,5.0,7.0,74,0.00,,,0.00,Wunderground v.1.15,2013-02-10 22:35:00,
2013-02-10 17:40:00,54.2,46.1,30.26,East,98,5.0,6.0,74,0.00,,,0.00,Wunderground v.1.15,2013-02-10 22:40:00,
2013-02-10 17:46:00,54.1,46.0,30.25,ESE,116,6.0,6.0,74,0.00,,,0.00,Wunderground v.1.15,2013-02-10 22:46:00,
2013-02-10 17:55:00,53.5,46.1,30.25,ESE,102,6.0,7.0,76,0.00,,,0.00,Wunderground v.1.15,2013-02-10 22:55:00,
2013-02-10 18:00:00,53.3,45.9,30.25,East,93,6.0,7.0,76,0.00,,,0.00,Wunderground v.1.15,2013-02-10 23:00:00,
2013-02-10 18:06:00,53.3,45.9,30.24,ESE,114,6.0,8.0,76,0.00,,,0.00,Wunderground v.1.15,2013-02-10 23:06:00,
2013-02-10 18:11:00,53.1,46.1,30.24,ESE,115,7.0,12.0,77,0.00,,,0.00,Wunderground v.1.15,2013-02-10 23:11:00,
2013-02-10 18:21:00,52.8,46.1,30.24,ESE,104,6.0,7.0,78,0.00,,,0.00,Wunderground v.1.15,2013-02-10 23:21:00,
2013-02-10 18:30:00,52.6,46.3,30.24,ESE,107,5.0,5.0,79,0.00,,,0.00,Wunderground v.1.15,2013-02-10 23:30:00,
2013-02-10 18:40:00,52.6,46.6,30.24,East,95,6.0,6.0,80,0.00,,,0.00,Wunderground v.1.15,2013-02-10 23:40:00,
2013-02-10 18:45:00,52.6,46.6,30.24,ESE,115,6.0,6.0,80,0.00,,,0.00,Wunderground v.1.15,2013-02-10 23:45:00,
2013-02-10 18:50:00,52.6,46.6,30.24,ESE,109,5.0,5.0,80,0.00,,,0.00,Wunderground v.1.15,2013-02-10 23:50:00,
2013-02-10 18:56:00,52.5,46.8,30.24,ESE,115,5.0,5.0,81,0.00,,,0.00,Wunderground v.1.15,2013-02-10 23:56:00,
2013-02-10 19:05:00,52.6,46.9,30.24,ESE,109,6.0,7.0,81,0.00,,,0.00,Wunderground v.1.15,2013-02-11 00:05:00,
2013-02-10 19:11:00,52.6,47.3,30.23,East,100,7.0,7.0,82,0.00,,,0.00,Wunderground v.1.15,2013-02-11 00:11:00,
2013-02-10 19:16:00,52.5,47.2,30.23,ESE,104,6.0,7.0,82,0.00,,,0.00,Wunderground v.1.15,2013-02-11 00:16:00,
2013-02-10 19:26:00,52.4,47.4,30.23,ESE,110,6.0,8.0,83,0.00,,,0.00,Wunderground v.1.15,2013-02-11 00:26:00,
2013-02-10 19:35:00,52.6,47.6,30.23,East,99,5.0,6.0,83,0.00,,,0.00,Wunderground v.1.15,2013-02-11 00:35:00,
2013-02-10 19:45:00,52.8,47.8,30.23,ESE,114,5.0,7.0,83,0.00,,,0.00,Wunderground v.1.15,2013-02-11 00:45:00,
2013-02-10 19:51:00,52.8,47.8,30.23,East,96,5.0,6.0,83,0.00,,,0.00,Wunderground v.1.15,2013-02-11 00:51:00,
2013-02-10 20:01:00,53.1,48.4,30.23,ESE,117,4.0,5.0,84,0.00,,,0.00,Wunderground v.1.15,2013-02-11 01:01:00,
2013-02-10 20:06:00,53.1,48.4,30.23,ESE,115,3.0,5.0,84,0.00,,,0.00,Wunderground v.1.15,2013-02-11 01:06:00,
2013-02-10 20:11:00,53.0,48.3,30.23,ESE,111,2.0,2.0,84,0.00,,,0.00,Wunderground v.1.15,2013-02-11 01:11:00,
2013-02-10 20:20:00,53.0,48.3,30.22,ESE,121,3.0,3.0,84,0.00,,,0.00,Wunderground v.1.15,2013-02-11 01:20:00,
2013-02-10 20:26:00,53.0,48.3,30.22,ESE,111,4.0,4.0,84,0.00,,,0.00,Wunderground v.1.15,2013-02-11 01:26:00,
2013-02-10 20:35:00,53.1,48.4,30.21,East,94,5.0,6.0,84,0.00,,,0.00,Wunderground v.1.15,2013-02-11 01:35:00,
2013-02-10 20:40:00,53.1,48.4,30.21,East,97,4.0,5.0,84,0.00,,,0.00,Wunderground v.1.15,2013-02-11 01:40:00,
2013-02-10 20:46:00,53.1,48.7,30.20,ESE,103,4.0,5.0,85,0.00,,,0.00,Wunderground v.1.15,2013-02-11 01:46:00,
2013-02-10 20:55:00,53.1,48.7,30.21,ESE,109,4.0,4.0,85,0.00,,,0.00,Wunderground v.1.15,2013-02-11 01:55:00,
2013-02-10 21:00:00,53.0,48.6,30.21,ESE,102,3.0,3.0,85,0.00,,,0.00,Wunderground v.1.15,2013-02-11 02:00:00,
2013-02-10 21:10:00,53.4,49.3,30.21,ESE,118,2.0,2.0,86,0.00,,,0.00,Wunderground v.1.15,2013-02-11 02:10:00,
2013-02-10 21:15:00,53.4,49.3,30.20,East,95,3.0,6.0,86,0.00,,,0.00,Wunderground v.1.15,2013-02-11 02:15:00,
2013-02-10 21:21:00,53.5,49.4,30.19,East,94,5.0,6.0,86,0.00,,,0.00,Wunderground v.1.15,2013-02-11 02:21:00,
2013-02-10 21:30:00,53.6,49.5,30.20,East,96,3.0,3.0,86,0.00,,,0.00,Wunderground v.1.15,2013-02-11 02:30:00,
2013-02-10 21:35:00,53.7,49.6,30.20,East,96,1.0,3.0,86,0.00,,,0.00,Wunderground v.1.15,2013-02-11 02:35:00,
2013-02-10 21:41:00,53.8,49.7,30.20,East,96,1.0,1.0,86,0.00,,,0.00,Wunderground v.1.15,2013-02-11 02:41:00,
2013-02-10 21:50:00,54.2,50.1,30.21,East,96,1.0,1.0,86,0.00,,,0.00,Wunderground v.1.15,2013-02-11 02:50:00,
2013-02-10 21:56:00,54.4,50.3,30.21,East,96,1.0,1.0,86,0.00,,,0.00,Wunderground v.1.15,2013-02-11 02:56:00,
2013-02-10 22:06:00,54.3,49.9,30.22,East,96,0.0,0.0,85,0.00,,,0.00,Wunderground v.1.15,2013-02-11 03:06:00,
2013-02-10 22:11:00,54.1,49.7,30.22,East,96,0.0,0.0,85,0.00,,,0.00,Wunderground v.1.15,2013-02-11 03:11:00,
2013-02-10 22:21:00,53.9,49.8,30.22,East,96,0.0,0.0,86,0.00,,,0.00,Wunderground v.1.15,2013-02-11 03:21:00,
2013-02-10 22:26:00,53.5,49.4,30.22,East,96,0.0,0.0,86,0.00,,,0.00,Wunderground v.1.15,2013-02-11 03:26:00,
2013-02-10 22:35:00,53.1,49.3,30.21,ENE,59,1.0,4.0,87,0.00,,,0.00,Wunderground v.1.15,2013-02-11 03:35:00,
2013-02-10 22:41:00,53.2,49.4,30.21,ENE,57,2.0,3.0,87,0.00,,,0.00,Wunderground v.1.15,2013-02-11 03:41:00,
2013-02-10 22:46:00,53.2,49.4,30.22,NE,55,3.0,3.0,87,0.00,,,0.00,Wunderground v.1.15,2013-02-11 03:46:00,
2013-02-10 22:55:00,53.1,49.3,30.22,NE,55,2.0,3.0,87,0.00,,,0.00,Wunderground v.1.15,2013-02-11 03:55:00,
2013-02-10 23:01:00,53.1,49.3,30.22,NE,55,2.0,2.0,87,0.00,,,0.00,Wunderground v.1.15,2013-02-11 04:01:00,
2013-02-10 23:06:00,53.1,49.3,30.22,NE,55,2.0,2.0,87,0.00,,,0.00,Wunderground v.1.15,2013-02-11 04:06:00,
2013-02-10 23:11:00,53.0,49.2,30.22,NE,55,3.0,3.0,87,0.00,,,0.00,Wunderground v.1.15,2013-02-11 04:11:00,
2013-02-10 23:21:00,53.1,49.3,30.22,NE,55,1.0,1.0,87,0.00,,,0.00,Wunderground v.1.15,2013-02-11 04:21:00,
2013-02-10 23:30:00,53.0,49.5,30.23,NE,43,2.0,2.0,88,0.00,,,0.00,Wunderground v.1.15,2013-02-11 04:30:00,
2013-02-10 23:36:00,52.9,49.4,30.22,NE,34,3.0,3.0,88,0.00,,,0.00,Wunderground v.1.15,2013-02-11 04:36:00,
2013-02-10 23:41:00,52.8,49.3,30.22,NE,34,3.0,3.0,88,0.00,,,0.00,Wunderground v.1.15,2013-02-11 04:41:00,
2013-02-10 23:46:00,52.7,49.2,30.23,NE,34,2.0,3.0,88,0.00,,,0.00,Wunderground v.1.15,2013-02-11 04:46:00,
2013-02-10 23:55:00,52.6,49.1,30.22,NE,34,2.0,2.0,88,0.00,,,0.00,Wunderground v.1.15,2013-02-11 04:55:00,